This is the latest recevied weather packets stored in our database for station/object WD4DAN-13. If no packets are shown the sender has not sent any weather packets the latest 1 day(s).
| Time | Temp. | Humidity | Pressure | Rain* | Wind** | Luminosity | Snow |
|---|---|---|---|---|---|---|---|
| 1778023212 | 27.22° C | 54% | - | 0 mm | 0 m/s | - | - |
| 1778022909 | 27.22° C | 53% | - | 0 mm | 1.34 m/s, 299° | - | - |
| 1778022608 | 27.22° C | 53% | - | 0 mm | 0 m/s | - | - |
| 1778022304 | 27.78° C | 52% | - | 0 mm | 1.79 m/s, 325° | - | - |
| 1778022000 | 27.78° C | 52% | - | 0 mm | 1.79 m/s, 287° | - | - |
| 1778021697 | 27.78° C | 52% | - | 0 mm | 1.34 m/s, 296° | - | - |
| 1778021394 | 27.78° C | 52% | - | 0 mm | 2.68 m/s, 296° | - | - |
| 1778021090 | 28.33° C | 52% | - | 0 mm | 1.34 m/s, 292° | - | - |
| 1778020788 | 28.33° C | 51% | - | 0 mm | 1.79 m/s, 294° | - | - |
| 1778020485 | 28.33° C | 51% | - | 0 mm | 0 m/s | - | - |
| 1778020181 | 28.33° C | 51% | - | 0 mm | 1.34 m/s, 289° | - | - |
| 1778019877 | 28.33° C | 51% | - | 0 mm | 2.68 m/s, 0° | - | - |
| 1778019573 | 28.89° C | 50% | - | 0 mm | 1.34 m/s, 295° | - | - |
| 1778019271 | 28.89° C | 51% | - | 0 mm | 1.34 m/s, 308° | - | - |
| 1778018968 | 28.33° C | 50% | - | 0 mm | 3.58 m/s, 314° | - | - |
| 1778018665 | 28.33° C | 50% | - | 0 mm | 2.24 m/s, 228° | - | - |
| 1778018362 | 28.89° C | 49% | - | 0 mm | 2.24 m/s, 228° | - | - |
| 1778018060 | 28.33° C | 49% | - | 0 mm | 2.24 m/s, 304° | - | - |
| 1778017758 | 28.89° C | 47% | - | 0 mm | 2.68 m/s, 254° | - | - |
| 1778017455 | 28.89° C | 47% | - | 0 mm | 1.34 m/s, 292° | - | - |
| 1778017152 | 28.33° C | 48% | - | 0 mm | 3.13 m/s, 244° | - | - |
| 1778016850 | 28.89° C | 47% | - | 0 mm | 2.24 m/s, 228° | - | - |
| 1778016546 | 28.33° C | 48% | - | 0 mm | 3.58 m/s, 258° | - | - |
| 1778016243 | 28.89° C | 48% | - | 0 mm | 4.02 m/s, 308° | - | - |
| 1778015939 | 28.89° C | 46% | - | 0 mm | 2.24 m/s, 310° | - | - |
* Rain latest hour (hover to see other rain measurements)
** Current wind speed in m/s (hover to see current wind gust speed)